SCP
0 0 0 0 0 0 0 0 0 0 0 0 0 0 0 0 0 0 0 0 0 0 0 0 0 0 0 0 0 0 0 0 0 0 0 0 0 0 0 0 0 0 0
0 0 0 0 0 0 0 0 0 0 0 0 0 0 0 0 0 0 0 0 0 0 0 0 0 0 0 0 0 0 0 0 0 0 0 0 0 0 0 0 0 0 0
0 0 0 0 0 0 0 0 0 0 0 0 0 0 0 0 0 0 0 0 0 0 0 0 0 0 0 0 0 0 0 0 0 0 0 0 0 0 0 0 0 0 0
0 0 0 0 0 0 0 0 0 0 0 0 0 0 0 0 0 0 0 0 0 0 0 0 0 0 0 0 0 0 0 0 0 0 0 0 0 0 0 0 0 0 0
0 0 0 0 0 0 0 0 0 0 0 0 0 0 0 0 0 0 0 0 0 0 0 0 0 0 0 0 0 0 0 0 0 0 0 0 0 0 0 0 0 0 0
0 0 0 0 0 0 0 0 0 0 0 0 0 0 0 0 0 0 0 0 0 0 0 0 0 0 0 0 0 0 0 0 0 0 0 0 0 0 0 0 0 0 0
0 0 0 0 0 0 0 0 0 0 0 0 0 0 0 0 0 0 0 0 0 0 0 0 0 0 0 0 0 0 0 0 0 0 0 0 0 0 0 0 0 0 0
0 0 0 0 0 0 0 0 0 0 0 0 0 0 0 0 0 0 0 0 0 0 0 0 0 0 0 0 0 0 0 0 0 0 0 0 0 0 0 0 0 0 0
0 0 0 0 0 0 0 0 0 0 0 0 0 0 0 0 0 0 0 0 0 0 0 0 0 0 0 0 0 0 0 0 0 0 0 0 0 0 0 0 0 0 0
0 0 0 0 0 0 0 0 0 0 0 0 0 0 0 0 0 0 0 0 0 0 0 0 0 0 0 0 0 0 0 0 0 0 0 0 0 0 0 0 0 0 0
0 0 0 0 0 0 0 0 0 0 0 0 0 0 0 0 0 0 0 0 0 0 0 0 0 0 0 0 0 0 0 0 0 0 0 0 0 0 0 0 0 0 0
0 0 0 0 0 0 0 0 0 0 0 0 0 0 0 0 0 0 0 0 0 0 0 0 0 0 0 0 0 0 0 0 0 0 0 0 0 0 0 0 0 0 0
0 0 0 0 0 0 0 0 0 0 0 0 0 0 0 0 0 0 0 0 0 0 0 0 0 0 0 0 0 0 0 0 0 0 0 0 0 0 0 0 0 0 0
0 0 0 0 0 0 0 0 0 0 0 0 0 0 0 0 0 0 0 0 0 0 0 0 0 0 0 0 0 0 0 0 0 0 0 0 0 0 0 0 0 0 0
0 0 0 0 0 0 0 0 0 0 0 0 0 0 0 0 0 0 0 0 0 0 0 0 0 0 0 0 0 0 0 0 0 0 0 0 0 0 0 0 0 0 0
0 0 0 0 0 0 0 0 0 0 0 0 0 0 0 0 0 0 0 0 0 0 0 0 0 0 0 0 0 0 0 0 0 0 0 0 0 0 0 0 0 0 0
0 0 0 0 0 0 0 0 0 0 0 0 0 0 0 0 0 0 0 0 0 0 0 0 0 0 0 0 0 0 0 0 0 0 0 0 0 0 0 0 0 0 0
0 0 0 0 0 0 0 0 0 0 0 0 0 0 0 0 0 0 0 0 0 0 0 0 0 0 0 0 0 0 0 0 0 0 0 0 0 0 0 0 0 0 0
0 0 0 0 0 0 0 0 0 0 0 0 0 0 0 0 0 0 0 0 0 0 0 0 0 0 0 0 0 0 0 0 0 0 0 0 0 0 0 0 0 0 0
0 0 0 0 0 0 0 0 0 0 0 0 0 0 0 0 0 0 0 0 0 0 0 0 0 0 0 0 0 0 0 0 0 0 0 0 0 0 0 0 0 0 0
0 0 0 0 -0 0 0 0 0 0 0 0 0 0 0 0 0 0 0 0 0 0 0 0 0 0 0 0 0 0 0 0 0 0 0 0 0 0 0 0 0 0 0
0 0 0 0 0 0 0 0 0 0 0 0 0 0 0 0 0 0 0 0 0 0 0 0 0 0 0 0 0 0 0 0 0 0 0 0 0 0 0 0 0 0 0
0 0 0 0 0 0 0 0 0 0 0 0 0 0 0 0 0 0 0 0 0 0 0 0 0 0 0 0 0 0 0 0 0 0 0 0 0 0 0 0 0 0 0
0 0 0 0 0 0 0 0 0 0 0 0 0 0 0 0 0 0 0 0 0 0 0 0 0 0 0 0 0 0 0 0 0 0 0 0 0 0 0 0 0 0 0
0 0 0 0 0 0 0 0 0 0 0 0 0 0 0 0 0 0 0 0 0 0 0 0 0 0 0 0 0 0 0 0 0 0 0 0 0 0 0 0 0 0 0
0 0 0 0 0 0 0 0 0 0 0 0 0 0 0 0 0 0 0 0 0 0 0 0 0 0 0 0 0 0 0 0 0 0 0 0 0 0 0 0 0 0 0
Wind_Speed
7 7 7 6 6 6 6 7 7 6 6 7 7 7 7 7 6 6 5 5 6 5 4 5 4 4 3 3 3 3 3 3 3 3 2 2 3 3 3 2 3 4 4
7 7 7 6 7 7 7 7 6 6 6 7 7 7 7 7 7 7 7 7 7 6 6 5 5 4 4 3 3 4 3 4 4 4 2 2 3 3 3 4 4 4 4
7 7 6 6 7 7 7 7 7 6 6 6 6 8 8 8 8 8 7 7 7 7 7 7 6 6 5 4 4 4 4 4 4 4 4 2 3 2 3 3 4 4 5
7 8 8 8 8 7 7 6 6 6 7 7 7 7 7 7 8 7 7 7 7 7 7 7 7 7 7 6 5 6 5 4 4 4 4 4 4 3 3 3 4 3 4
8 8 8 7 7 6 6 6 6 6 7 6 6 6 6 6 7 8 7 7 7 7 6 7 7 8 9 7 6 6 6 5 4 4 5 4 4 3 4 3 4 5 5
8 8 7 7 7 7 7 6 6 6 5 5 6 6 6 6 8 11 9 7 7 7 6 6 6 8 9 10 11 9 9 7 7 5 5 6 7 6 5 4 4 4 5
7 6 6 6 6 6 6 6 6 6 5 5 5 5 6 7 8 10 11 7 6 6 6 6 5 5 7 6 8 9 10 12 11 8 8 9 8 7 5 6 6 6 7
6 5 5 6 6 5 5 5 5 4 5 5 5 5 5 5 7 8 9 7 5 6 6 6 6 6 5 6 6 6 7 7 9 9 9 9 9 7 6 7 7 7 7
5 5 5 6 6 6 6 5 4 4 4 4 3 4 5 4 5 7 7 4 4 6 5 6 6 6 6 6 5 6 7 7 7 9 10 11 11 11 8 5 5 6 7
3 3 3 4 5 5 4 4 3 3 4 4 3 4 4 4 4 6 7 4 4 4 4 4 5 6 5 6 6 6 8 7 5 6 6 8 9 9 10 9 7 7 7
4 4 4 3 3 3 2 2 2 3 2 2 2 2 2 3 3 4 6 3 3 3 3 3 2 4 5 6 6 6 8 6 5 5 6 6 6 5 6 6 7 8 8
5 5 4 3 3 2 3 2 2 2 2 2 1 1 0 1 2 3 5 5 4 3 3 2 2 2 3 4 4 6 7 5 4 4 4 5 5 6 6 6 7 9 10
6 5 4 4 3 3 3 2 2 2 1 1 1 1 1 0 1 2 3 5 5 3 2 3 3 3 3 3 4 5 4 3 3 4 5 6 5 6 6 6 7 7 9
6 5 4 4 4 4 3 2 2 1 1 1 0 1 1 1 1 1 1 1 2 2 2 2 2 3 2 3 3 3 3 3 4 5 5 5 5 5 6 5 6 6 6
7 5 5 5 4 4 4 2 2 1 1 1 1 1 1 1 2 1 1 1 1 1 1 0 1 1 2 2 2 3 3 3 3 4 4 5 6 6 6 5 5 6 6
6 5 4 4 4 4 4 4 6 4 5 3 0 1 1 2 2 1 1 1 1 1 1 1 2 2 3 3 3 4 4 4 4 4 5 5 6 7 7 6 6 6 8
6 4 4 4 4 3 3 3 4 5 8 8 7 5 2 2 2 2 2 1 0 2 1 2 3 3 3 4 4 4 5 5 4 5 5 6 6 7 7 7 7 7 8
5 5 4 3 3 3 3 3 3 3 3 4 5 6 5 4 3 2 2 2 1 0 2 3 4 4 4 4 4 5 5 5 5 5 6 6 6 6 7 8 8 9 9
5 4 3 3 3 3 3 3 3 3 2 2 3 4 5 4 3 3 2 1 1 2 3 3 4 4 5 5 5 5 5 5 6 6 6 7 6 7 7 8 9 11 10
4 7 5 3 3 3 3 3 3 2 2 2 2 3 3 3 3 3 2 2 2 3 4 4 4 5 5 5 5 5 5 6 6 6 6 6 7 7 9 10 9 9 9
4 5 7 4 4 3 3 3 2 2 2 2 2 3 3 2 2 3 3 3 3 4 5 5 5 5 5 5 5 6 8 7 6 6 6 7 7 7 8 8 9 9 9
3 3 3 3 3 3 3 3 2 2 2 3 3 4 4 3 3 3 3 4 4 4 5 5 5 5 5 6 6 6 7 7 7 7 7 7 7 8 8 9 9 9 9
3 3 3 3 3 3 3 3 2 2 3 3 3 3 3 3 4 4 4 4 4 5 5 5 6 6 6 6 6 6 7 7 7 8 8 8 8 8 8 9 11 11 10
3 3 3 2 3 2 2 3 3 3 3 4 4 4 4 4 5 5 5 5 5 5 5 5 6 8 10 8 6 6 6 6 7 7 10 9 9 9 9 9 10 12 11
3 3 2 2 3 3 3 3 3 3 4 4 4 4 4 5 5 5 6 6 7 7 8 7 6 7 10 12 10 8 7 8 8 8 8 8 10 11 11 11 10 11 10
3 3 3 2 2 3 3 3 3 4 4 4 4 4 5 5 5 6 6 6 6 7 7 7 8 10 11 10 11 11 9 9 9 9 8 8 9 9 10 9 12 10 11
Wind_Direction
174 176 172 174 176 173 178 186 185 180 175 179 181 179 180 181 179 177 181 177 182 188 187 187 194 183 180 179 172 170 177 173 209 251 247 261 267 275 291 277 262 257 262
176 172 174 171 168 173 183 185 181 181 183 186 182 182 188 189 184 185 190 188 191 197 201 197 205 196 195 192 189 194 196 196 205 242 254 253 254 263 271 276 273 263 260
169 170 172 173 174 180 183 180 178 180 182 184 184 189 194 192 190 194 194 193 198 204 203 204 209 201 210 207 205 209 211 207 207 228 254 253 262 266 276 276 274 272 270
171 176 181 185 185 186 183 179 180 182 185 189 195 197 198 196 195 197 196 198 202 208 209 210 212 208 215 212 213 216 213 212 210 227 248 257 259 259 254 269 281 272 277
176 184 191 187 182 177 178 180 182 185 192 191 192 197 198 198 203 200 201 204 205 212 217 219 220 217 216 212 213 213 207 215 220 231 246 254 257 250 250 247 266 282 279
179 189 186 178 178 182 184 181 182 189 188 185 193 197 202 213 211 203 200 206 207 212 222 228 230 228 227 224 224 218 207 212 222 229 244 249 258 254 252 246 256 271 279
174 178 177 176 180 186 181 177 186 190 184 189 199 201 213 224 219 212 208 205 210 215 220 227 235 234 225 231 235 236 230 225 220 222 240 247 252 246 244 253 247 247 256
163 169 169 169 175 174 169 177 185 183 189 199 207 211 218 227 219 216 211 208 214 219 219 220 226 236 230 226 236 244 246 241 232 230 239 249 251 250 239 248 257 261 261
161 169 168 167 167 165 174 183 181 176 187 196 198 208 215 232 221 216 206 206 218 228 228 226 224 232 237 226 226 246 261 262 249 239 242 254 259 257 250 252 253 254 268
146 145 143 149 159 170 181 181 174 180 195 196 204 210 210 221 214 209 199 202 218 232 235 230 224 230 241 229 225 234 252 261 269 275 264 263 263 263 248 236 241 250 262
107 101 100 117 139 146 146 143 150 160 162 177 200 215 208 217 219 202 190 192 212 228 235 235 232 232 241 244 234 236 248 263 273 271 275 276 272 266 258 243 233 236 248
94 93 88 85 90 102 113 114 125 143 154 178 182 205 232 217 214 211 196 199 202 214 234 237 235 239 251 255 246 251 261 268 265 267 270 273 276 275 273 268 255 247 245
78 76 77 80 80 87 99 102 107 120 148 170 167 217 276 283 248 237 223 218 215 217 238 241 255 263 264 261 258 267 270 259 253 260 265 269 269 273 278 279 274 264 259
72 63 61 64 58 56 66 84 100 109 121 119 145 238 275 306 300 291 223 211 208 213 241 263 273 266 251 254 270 270 254 247 248 258 269 276 282 280 276 276 277 281 279
67 61 57 56 56 52 50 48 58 75 144 172 205 207 211 255 264 239 208 221 218 207 173 232 275 286 290 284 278 273 266 256 251 254 265 278 282 282 281 279 272 276 275
69 59 54 54 54 53 51 40 36 44 41 51 143 227 244 245 272 243 233 244 245 192 168 231 255 261 267 272 277 282 275 268 265 264 266 269 275 278 281 280 273 273 276
69 63 57 56 55 52 53 54 32 21 34 41 37 30 4 337 333 313 306 304 247 169 229 259 262 265 269 271 273 275 277 277 274 269 269 272 274 276 277 280 280 277 276
60 58 60 55 53 50 48 46 48 43 21 9 15 20 17 16 24 31 35 65 34 219 254 268 276 278 277 276 276 277 280 283 280 277 276 276 276 279 281 282 281 280 281
51 49 51 51 51 51 49 48 46 42 34 7 359 5 13 22 41 45 68 29 292 287 280 276 274 275 275 275 277 277 276 277 279 279 276 276 277 277 278 280 280 279 277
42 45 50 48 44 44 42 41 36 32 27 16 2 349 353 10 4 355 348 316 298 294 291 285 282 278 276 276 279 277 275 274 276 274 276 276 275 275 278 281 281 281 279
46 41 45 47 39 33 29 22 16 15 7 353 336 331 341 330 318 316 312 303 296 294 293 290 289 289 286 283 279 278 278 277 274 275 276 278 279 279 280 280 281 280 280
55 48 42 38 30 23 14 7 6 2 345 332 325 328 327 325 315 308 305 303 301 295 292 290 287 285 282 281 281 280 279 280 281 280 279 279 280 281 282 282 282 282 281
55 49 38 26 21 17 11 357 347 338 328 323 323 325 326 321 314 309 308 308 306 304 302 296 292 291 290 287 282 276 276 279 283 285 284 282 280 279 279 280 282 284 282
47 43 32 14 6 2 349 340 336 332 329 326 325 321 318 317 314 311 310 308 306 303 299 295 291 294 299 299 291 284 279 284 291 286 281 279 279 278 276 276 277 278 280
28 20 11 359 352 346 342 340 338 338 335 330 328 325 323 322 319 317 314 311 309 306 306 305 301 301 303 302 300 297 296 292 285 284 282 276 274 274 274 275 275 278 279
19 11 4 357 353 348 345 341 338 336 335 333 332 331 329 326 323 321 319 317 314 311 310 307 305 307 308 306 304 305 297 290 284 276 273 270 268 268 272 274 277 278 279